Wind_Speed
8 4 9 10 21 20 22 26 18 25 28 25 28 28 29 30 32 27 29 28 30 30
13 14 12 19 21 26 24 21 26 25 29 30 28 32 33 32 32 32 35 38 33 29
20 22 22 20 18 20 20 21 23 21 22 24 25 27 29 30 28 29 28 32 32 28
9 7 8 10 12 14 15 18 19 21 23 25 28 29 28 28 27 28 27 26 27 25
4 5 6 8 10 11 13 14 16 18 20 22 22 22 22 23 26 28 27 29 27 25
1 3 5 7 8 10 12 14 15 17 18 19 21 22 23 24 26 27 27 28 27 28
6 7 8 9 9 10 12 13 15 15 16 17 19 20 22 22 22 24 26 28 29 31
8 8 8 9 9 11 12 13 15 16 17 16 18 19 19 20 22 24 25 26 27 28
9 11 12 13 13 13 14 15 15 16 17 18 18 18 20 20 22 24 26 27 27 28
13 15 14 14 15 16 16 17 17 18 19 20 20 20 20 22 23 24 24 25 25 26
15 17 19 18 19 19 20 20 21 20 20 23 22 21 22 24 26 26 27 27 28 27
18 18 19 21 22 21 21 21 22 23 24 23 22 23 24 26 28 29 28 29 29 29
23 22 21 22 24 27 23 20 19 20 21 24 24 23 26 28 30 30 30 31 31 31
23 22 22 23 24 26 24 23 22 21 20 23 24 24 27 29 32 32 32 33 34 32
Wind_Direction
143 200 186 203 224 239 234 238 254 241 235 238 243 241 264 262 251 248 244 240 246 251
234 239 229 232 232 240 234 248 234 248 238 242 252 249 262 260 253 248 242 243 246 251
247 254 252 245 244 239 234 243 240 242 241 248 254 258 261 262 261 258 253 248 245 245
216 234 243 241 239 240 245 244 246 248 249 251 252 256 256 254 256 255 258 247 244 240
156 213 232 242 249 257 259 258 260 254 253 255 258 260 261 256 254 250 249 246 243 239
291 286 285 288 290 288 285 276 270 268 265 262 263 263 261 256 253 253 253 247 242 243
12 354 343 328 310 296 282 279 276 272 270 272 270 265 263 260 255 252 250 246 246 245
7 356 349 338 330 318 306 293 287 283 278 275 274 274 270 267 257 255 251 250 247 244
340 333 331 325 323 318 308 299 286 280 282 280 274 270 270 266 258 255 256 252 248 247
328 324 318 314 309 305 300 296 293 285 278 272 272 273 274 271 264 260 255 253 251 250
317 315 314 311 307 302 298 294 288 282 275 271 269 268 267 267 265 261 257 254 251 251
309 311 312 310 309 303 296 293 293 289 284 276 267 267 265 266 264 261 257 255 252 251
315 313 310 308 309 306 308 300 292 286 282 280 276 264 266 260 260 259 257 254 251 247
310 317 317 316 310 303 307 308 300 290 283 281 277 274 264 264 261 256 255 252 251 251
Height
1465 1471 1476 1478 1483 1484 1486 1490 1491 1494 1496 1499 1500 1499 1501 1502 1506 1504 1506 1508 1506 1509
1468 1472 1476 1479 1480 1482 1482 1484 1487 1489 1490 1491 1494 1494 1495 1494 1496 1497 1499 1499 1502 1503
1467 1471 1475 1474 1476 1477 1476 1477 1480 1482 1484 1485 1486 1486 1487 1487 1487 1488 1490 1492 1496 1497
1466 1468 1472 1474 1473 1473 1473 1473 1475 1476 1479 1480 1480 1481 1480 1480 1482 1483 1484 1487 1489 1490
1465 1472 1472 1472 1471 1470 1470 1470 1471 1473 1473 1473 1473 1473 1474 1475 1477 1478 1480 1482 1484 1485
1470 1471 1470 1468 1466 1466 1466 1466 1467 1469 1466 1466 1467 1467 1467 1468 1470 1472 1473 1475 1477 1480
1470 1469 1465 1465 1465 1463 1465 1464 1465 1461 1461 1461 1462 1463 1464 1464 1465 1466 1466 1467 1468 1470
1467 1466 1464 1463 1461 1461 1460 1460 1461 1460 1458 1455 1456 1458 1457 1458 1460 1461 1460 1461 1462 1464
1466 1465 1462 1461 1460 1459 1459 1457 1455 1452 1452 1452 1451 1453 1453 1450 1452 1453 1455 1456 1456 1459
1463 1462 1459 1457 1456 1455 1453 1453 1452 1449 1447 1446 1447 1447 1447 1448 1447 1447 1447 1450 1452 1452
1456 1456 1457 1454 1451 1450 1449 1448 1446 1443 1442 1442 1439 1438 1441 1443 1443 1443 1443 1444 1445 1444
1455 1450 1446 1448 1447 1446 1444 1439 1438 1436 1436 1434 1432 1434 1435 1436 1436 1435 1434 1436 1436 1438
1448 1445 1441 1439 1441 1442 1436 1433 1430 1431 1431 1430 1427 1426 1427 1428 1430 1425 1427 1428 1429 1429
1445 1440 1437 1434 1434 1439 1434 1427 1426 1424 1422 1422 1419 1419 1419 1421 1418 1417 1419 1419 1421 1421